Satellite-Ground Cal/Val Region Overpasses Predictions

Prediction of Satellite NPP Overpassing Cal/Val Region: PacNW

Region Location: (Latitude: 10.00, Longitude: 139.50) to (Latitude: 22.70, Longitude: 165.60).

Table of predicted overpasses for the next 14.0 days since TLE Epoch: 9/1/2017
Interval Starting Time Starting Location Ending Time Ending Location
1 09/01/2017 15:36:51 ( 22.69, 150.80) 09/01/2017 15:40:27 ( 10.01, 147.78)
2 09/02/2017 02:45:57 ( 10.04, 158.31) 09/02/2017 02:49:32 ( 22.66, 155.31)
3 09/02/2017 15:17:50 ( 22.65, 155.55) 09/02/2017 15:21:25 ( 10.03, 152.54)
4 09/03/2017 02:26:55 ( 10.02, 163.07) 09/03/2017 02:30:31 ( 22.70, 160.05)
5 09/03/2017 14:58:49 ( 22.67, 160.31) 09/03/2017 15:02:24 ( 10.05, 157.31)
6 09/04/2017 02:10:36 ( 19.51, 165.60) 09/04/2017 02:11:30 ( 22.68, 164.81)
7 09/04/2017 03:49:24 ( 10.00, 142.46) 09/04/2017 03:52:55 ( 22.39, 139.51)
8 09/04/2017 14:39:47 ( 22.69, 165.07) 09/04/2017 14:43:23 ( 10.01, 162.05)
9 09/04/2017 16:21:17 ( 22.69, 139.69) 09/04/2017 16:21:30 ( 21.93, 139.50)
10 09/05/2017 03:30:23 ( 10.04, 147.20) 09/05/2017 03:33:58 ( 22.66, 144.20)
11 09/05/2017 16:02:17 ( 22.65, 144.44) 09/05/2017 16:05:52 ( 10.03, 141.44)
12 09/06/2017 03:11:22 ( 10.02, 151.96) 09/06/2017 03:14:57 ( 22.65, 148.96)
13 09/06/2017 15:43:15 ( 22.67, 149.20) 09/06/2017 15:46:50 ( 10.05, 146.20)
14 09/07/2017 02:52:20 ( 10.01, 156.72) 09/07/2017 02:55:56 ( 22.69, 153.71)
15 09/07/2017 15:24:14 ( 22.69, 153.96) 09/07/2017 15:27:50 ( 10.01, 150.94)
16 09/08/2017 02:33:20 ( 10.05, 161.47) 09/08/2017 02:36:55 ( 22.67, 158.47)
17 09/08/2017 15:05:14 ( 22.65, 158.71) 09/08/2017 15:08:49 ( 10.03, 155.70)
18 09/09/2017 02:15:05 ( 12.79, 165.59) 09/09/2017 02:17:53 ( 22.65, 163.23)
19 09/09/2017 03:55:48 ( 10.03, 140.86) 09/09/2017 03:57:27 ( 15.85, 139.51)
20 09/09/2017 14:46:12 ( 22.67, 163.47) 09/09/2017 14:49:47 ( 10.05, 160.46)
21 09/10/2017 03:36:47 ( 10.01, 145.61) 09/10/2017 03:40:23 ( 22.70, 142.60)
22 09/10/2017 14:30:19 ( 11.65, 165.59) 09/10/2017 14:30:47 ( 10.00, 165.21)
23 09/10/2017 16:08:41 ( 22.68, 142.85) 09/10/2017 16:12:17 ( 10.00, 139.83)
24 09/11/2017 03:17:46 ( 10.06, 150.36) 09/11/2017 03:21:21 ( 22.68, 147.36)
25 09/11/2017 15:49:39 ( 22.70, 147.61) 09/11/2017 15:53:15 ( 10.02, 144.59)
26 09/12/2017 02:58:45 ( 10.04, 155.12) 09/12/2017 03:02:20 ( 22.66, 152.12)
27 09/12/2017 15:30:39 ( 22.66, 152.36) 09/12/2017 15:34:14 ( 10.04, 149.35)
28 09/13/2017 02:39:43 ( 10.02, 159.88) 09/13/2017 02:43:18 ( 22.65, 156.88)
29 09/13/2017 15:11:37 ( 22.67, 157.12) 09/13/2017 15:15:12 ( 10.05, 154.11)
30 09/14/2017 02:20:42 ( 10.01, 164.64) 09/14/2017 02:24:18 ( 22.69, 161.62)
31 09/14/2017 14:52:36 ( 22.69, 161.88) 09/14/2017 14:56:12 ( 10.01, 158.86)


NCC Satellite Cal/Val Overpasses Prediction Service
